User: anonymous   Login
Location: Unspecified
(0.0000°N, 0.0000°E)
Time: 10:01:25
(UTC+00:00)
Language:

FALCON 9 R/B - Orbit

View from above orbital plane
View from above orbital plane
View from above satellite
View from above satellite

Ground track
Ground track

The orbit data is extracted from the following two-line orbital elements,

1 37253U 10066K   15180.77832167  .00006076  00000-0  55978-3 0  9995
2 37253 034.5315 336.6232 4316242 094.7422 314.3179 06.83602438111199
Epoch (UTC): 29 June 2015 18:40:46
Eccentricity: 0.4316242
inclination: 34.5315°
perigee height: 287 km
apogee height: 10411 km
right ascension of ascending node: 336.6232°
argument of perigee: 94.7422°
revolutions per day: 6.83602438
mean anomaly at epoch: 314.3179°
orbit number at epoch: 11119

The dashed part of the orbit path shows where the satellite is in the earth's shadow,  

DLR